Location: Firdgum
(53.2488°N, 5.5615°E)
Time: 16:36:06
(UTC+00:00)

CZ-4C R/B - Pass Details

Date: 08 December 2019
Orbit: 646 x 1356 km, 63.4° (Epoch: 27 January)

Event Time Altitude Azimuth Distance (km) Brightness Sun altitude
Exits shadow 06:12:16 14° 277° (W) 2,865 4.3 -11.9°
Maximum altitude 06:15:03 17° 252° (WSW) 2,737 4.4 -11.5°
Drops below altitude 10° 06:19:39 10° 217° (SW) 3,309 5.1 -10.9°
Sets 06:23:50 0° 199° (SSW) 4,340 6.0 -10.3°
